Location: St Paul
(33.9360°N, 83.4200°W)
Time: 23:32:05
(UTC-04:00)

NOSS 3-4 (C) - Pass Details

Date: 06 October 2017
Orbit: 957 x 1255 km, 63.4° (Epoch: 15 October)

Event Time Altitude Azimuth Distance (km) Brightness Sun altitude
Rises 21:39:58 0° 328° (NNW) 3,909 7.3 -31.5°
Reaches altitude 10° 21:42:33 10° 328° (NNW) 2,991 6.6 -32.0°
Enters shadow 21:49:32 83° 283° (WNW) 1,186 3.8 -33.4°
